KE9DBJ-13 Weather Reports


time (UTC)temp
F
wind
direction
speed
knots
gust
knots
rain 1hr
in
rain 24hr
in
rain mn
in
humidity
%
barometer
mb
20260906013003 74 169 0.0 1.7 0.38 0.00 0.00 88 1011.5
20260906012002 76 127 0.0 2.6 0.31 0.00 0.00 84 1011.8
20260906011002 77 71 0.0 7.0 0.00 0.00 0.00 80 1011.4
20260906010002 80 59 0.0 9.6 0.00 0.00 0.00 78 1010.8
20260906005002 80 54 0.0 15.6 0.00 0.00 0.00 82 1010.2
20260906004002 80 0.0 0.0 0.00 0.00 0.00 84 1010.0
20260906003002 81 0.0 0.0 0.00 0.00 0.00 83 1009.8
20260906002002 82 0.0 0.9 0.00 0.00 0.00 82 1009.6
20260906001002 82 0.0 0.0 0.00 0.00 0.00 81 1009.7
20260906000002 83 191 0.0 1.7 0.00 0.00 0.00 80 1010.0
20260905235002 84 0.0 0.0 0.00 0.00 0.00 79 1010.0
20260905234003 85 0.0 0.0 0.00 0.00 0.00 78 1010.3
20260905233003 85 0.0 0.0 0.00 0.00 0.00 77 1010.1
20260905232003 86 254 0.0 1.7 0.00 0.00 0.00 74 1010.1
20260905231003 86 0.0 0.0 0.00 0.00 0.00 74 1010.1
20260905230003 87 0.0 0.0 0.00 0.00 0.00 71 1010.0
20260905225003 88 0.0 0.0 0.00 0.00 0.00 68 1009.9
20260905224002 89 0.0 0.0 0.00 0.00 0.00 66 1009.7
20260905223002 88 177 0.0 1.7 0.00 0.00 0.00 65 1009.8
20260905222002 89 180 0.0 1.7 0.00 0.00 0.00 62 1009.8
20260905221002 91 301 0.0 2.6 0.00 0.00 0.00 57 1009.6
20260905220002 91 277 0.0 3.5 0.00 0.00 0.00 56 1009.5
20260905215002 92 22 0.0 4.3 0.00 0.00 0.00 55 1009.6
20260905214002 92 334 0.0 3.5 0.00 0.00 0.00 55 1009.6
20260905213002 92 304 0.0 4.3 0.00 0.00 0.00 54 1009.7
20260905212002 92 333 0.0 3.5 0.00 0.00 0.00 52 1009.8
20260905211002 94 292 0.0 4.3 0.00 0.00 0.00 50 1009.8
20260905210003 94 328 0.0 4.3 0.00 0.00 0.00 50 1010.0
20260905205003 93 356 0.0 3.5 0.00 0.00 0.00 53 1010.1
20260905204003 94 20 0.0 3.5 0.00 0.00 0.00 50 1010.2
20260905203003 94 320 0.0 5.2 0.00 0.00 0.00 49 1010.1
20260905202003 95 30 0.0 4.3 0.00 0.00 0.00 50 1010.2
20260905201002 95 100 0.0 2.6 0.00 0.00 0.00 49 1010.3
20260905200002 96 319 0.0 4.3 0.00 0.00 0.00 48 1010.4
20260905195002 96 275 0.0 3.5 0.00 0.00 0.00 48 1010.6
20260905194002 95 331 0.0 4.3 0.00 0.00 0.00 49 1010.8
20260905193002 95 35 0.0 3.5 0.00 0.00 0.00 49 1010.9
20260905192002 95 316 0.0 4.3 0.00 0.00 0.00 48 1011.0
20260905191002 95 20 0.0 5.2 0.00 0.00 0.00 49 1011.2
20260905190002 95 291 0.0 6.1 0.00 0.00 0.00 48 1011.2
20260905185002 95 346 0.0 4.3 0.00 0.00 0.00 50 1011.3
20260905184002 95 305 0.0 4.3 0.00 0.00 0.00 48 1011.4
20260905183002 95 293 0.0 4.3 0.00 0.00 0.00 49 1011.5
20260905182002 95 288 0.0 5.2 0.00 0.00 0.00 49 1011.5
20260905181003 94 300 0.0 4.3 0.00 0.00 0.00 50 1011.5
20260905180003 94 302 0.0 4.3 0.00 0.00 0.00 50 1011.7
20260905175003 93 335 0.0 4.3 0.00 0.00 0.00 51 1011.8
20260905174003 93 274 0.0 5.2 0.00 0.00 0.00 52 1012.0
20260905173003 92 301 0.0 4.3 0.00 0.00 0.00 52 1012.2
20260905172002 91 337 0.0 3.5 0.00 0.00 0.00 53 1012.4
20260905171002 91 44 0.0 3.5 0.00 0.00 0.00 53 1012.6
20260905170002 91 309 0.0 3.5 0.00 0.00 0.00 51 1012.7
20260905165002 90 97 0.0 4.3 0.00 0.00 0.00 52 1012.9
20260905164002 90 311 0.0 4.3 0.00 0.00 0.00 54 1013.0
20260905163002 89 333 0.0 4.3 0.00 0.00 0.00 54 1012.9
20260905162002 89 152 0.0 3.5 0.00 0.00 0.00 54 1013.0
20260905161002 89 155 0.0 2.6 0.00 0.00 0.00 54 1013.0
20260905160002 88 50 0.0 3.5 0.00 0.00 0.00 53 1012.9
20260905155002 88 38 0.0 3.5 0.00 0.00 0.00 51 1013.2
20260905154002 87 64 0.0 3.5 0.00 0.00 0.00 52 1013.0
20260905153003 87 129 0.0 2.6 0.00 0.00 0.00 53 1012.7
20260905152003 87 164 0.0 4.3 0.00 0.00 0.00 53 1012.8
20260905151003 85 304 0.0 4.3 0.00 0.00 0.00 55 1012.8
20260905150003 85 94 0.0 2.6 0.00 0.00 0.00 55 1013.0
20260905145003 84 360 0.0 2.6 0.00 0.00 0.00 57 1013.1
20260905144003 83 102 0.0 2.6 0.00 0.00 0.00 60 1013.3
20260905143003 82 123 0.0 3.5 0.00 0.00 0.00 61 1013.6
20260905142002 81 124 0.0 2.6 0.00 0.00 0.00 63 1013.7
20260905141002 80 22 0.0 3.5 0.00 0.00 0.00 66 1013.8
20260905140002 80 144 0.0 3.5 0.00 0.00 0.00 66 1014.2
20260905135002 79 332 0.0 4.3 0.00 0.00 0.00 68 1014.5
20260905134002 77 49 0.0 4.3 0.00 0.00 0.00 74 1014.6
20260905133002 76 29 0.0 2.6 0.00 0.00 0.00 78 1014.7
20260905132002 74 306 0.0 1.7 0.00 0.00 0.00 80 1014.9
20260905131002 74 21 0.0 3.5 0.00 0.00 0.00 78 1015.1
20260905130002 74 110 0.0 2.6 0.00 0.00 0.00 79 1015.2
20260905125002 73 66 0.0 3.5 0.00 0.00 0.00 81 1015.5
20260905124003 73 271 0.0 3.5 0.00 0.00 0.00 80 1015.9
20260905123003 72 208 0.0 2.6 0.00 0.00 0.00 81 1015.8
20260905122003 72 176 0.0 2.6 0.00 0.00 0.00 83 1015.7
20260905121003 72 180 0.0 0.9 0.00 0.00 0.00 84 1015.3
20260905120003 72 0.0 0.0 0.00 0.00 0.00 83 1015.2
20260905115003 73 180 0.0 1.7 0.00 0.00 0.00 82 1015.0
20260905114002 73 66 0.0 6.1 0.00 0.00 0.00 81 1015.0
20260905113002 73 70 0.0 7.0 0.00 0.00 0.00 82 1015.0
20260905112002 73 32 0.0 8.7 0.00 0.00 0.00 82 1015.0
20260905111002 73 80 0.0 13.0 0.00 0.00 0.00 84 1015.0
20260905110002 73 65 0.0 13.0 0.00 0.00 0.00 87 1014.2
20260905105002 71 29 0.0 10.4 0.00 0.00 0.00 92 1012.3
20260905104002 71 0.0 0.0 0.00 0.00 0.00 92 1012.3
20260905103002 71 0.0 0.0 0.00 0.00 0.00 92 1012.7
20260905102002 71 0.0 0.0 0.00 0.00 0.00 92 1012.7
20260905101003 71 0.0 0.0 0.00 0.00 0.00 92 1012.9
20260905100003 71 0.0 0.0 0.00 0.00 0.00 92 1013.4
20260905095003 71 0.0 0.0 0.00 0.00 0.00 92 1013.2
20260905094003 71 0.0 0.0 0.00 0.00 0.00 92 1012.8
20260905093003 71 0.0 0.0 0.00 0.00 0.00 92 1012.8
20260905092003 71 0.0 0.0 0.00 0.00 0.00 92 1012.7
20260905091002 71 0.0 0.0 0.00 0.00 0.00 92 1012.3
20260905090002 71 0.0 0.0 0.00 0.00 0.00 92 1012.6
20260905085002 71 0.0 0.0 0.00 0.00 0.00 92 1012.6
20260905084002 70 0.0 0.0 0.00 0.00 0.00 92 1012.6
20260905083002 70 0.0 0.0 0.00 0.00 0.00 92 1012.5
20260905082002 70 0.0 0.0 0.00 0.00 0.00 92 1012.3
20260905081002 70 0.0 0.0 0.00 0.00 0.00 92 1012.1
20260905080002 70 0.0 0.0 0.00 0.00 0.00 92 1012.0
20260905075002 70 0.0 0.0 0.00 0.00 0.00 92 1011.9
20260905074002 70 0.0 0.0 0.00 0.00 0.00 92 1012.0
20260905073002 71 0.0 0.0 0.00 0.00 0.00 92 1012.1
20260905072003 71 0.0 0.0 0.00 0.00 0.00 92 1012.1
20260905071003 71 0.0 0.0 0.00 0.00 0.00 92 1012.2
20260905070003 71 0.0 0.0 0.00 0.00 0.00 92 1012.5
20260905065003 71 0.0 0.0 0.00 0.00 0.00 92 1012.6
20260905064002 71 0.0 0.0 0.00 0.00 0.00 92 1012.8
20260905063003 71 0.0 0.0 0.00 0.00 0.00 92 1012.8
20260905062003 71 0.0 0.0 0.00 0.00 0.00 92 1012.9
20260905061002 71 0.0 0.0 0.00 0.00 0.00 92 1013.0
20260905060002 71 0.0 0.0 0.00 0.00 0.00 92 1013.2
20260905055002 71 0.0 0.0 0.00 0.00 0.00 92 1013.3
20260905054002 71 0.0 0.0 0.00 0.00 0.00 92 1013.3
20260905053002 72 0.0 0.0 0.00 0.00 0.00 92 1013.3
20260905052002 72 0.0 0.0 0.00 0.00 0.00 92 1013.4
20260905051002 72 0.0 0.0 0.00 0.00 0.00 92 1013.6
20260905050002 72 0.0 0.0 0.00 0.00 0.00 92 1013.7
20260905045002 72 0.0 0.0 0.00 0.00 0.00 92 1013.6
20260905044002 72 0.0 0.0 0.00 0.00 0.00 92 1013.6
20260905043003 72 0.0 0.0 0.00 0.00 0.00 92 1013.6
20260905042003 72 0.0 0.0 0.00 0.00 0.00 92 1013.6
20260905041003 72 0.0 0.0 0.00 0.00 0.00 92 1013.6
20260905040003 72 0.0 0.0 0.00 0.00 0.00 91 1013.6
20260905035003 72 0.0 0.0 0.00 0.00 0.00 91 1013.6
20260905034002 72 0.0 0.0 0.00 0.00 0.00 91 1013.6
20260905033002 73 0.0 0.0 0.00 0.00 0.00 91 1013.6
20260905032002 73 0.0 0.0 0.00 0.00 0.00 91 1013.5
20260905031002 73 0.0 0.0 0.00 0.00 0.00 91 1013.4
20260905030002 73 0.0 0.0 0.00 0.00 0.00 91 1013.4
20260905025002 73 0.0 0.0 0.00 0.00 0.00 91 1013.4
20260905024002 73 0.0 0.0 0.00 0.00 0.00 90 1013.4
20260905023002 74 0.0 0.0 0.00 0.00 0.00 90 1013.4
20260905022002 74 0.0 0.0 0.00 0.00 0.00 89 1013.4
20260905021002 74 0.0 0.0 0.00 0.00 0.00 89 1013.4
20260905020002 74 0.0 0.0 0.00 0.00 0.00 89 1013.3
20260905015003 74 0.0 0.0 0.00 0.00 0.00 88 1013.3
20260905014003 75 0.0 0.0 0.00 0.00 0.00 88 1013.4